| time (UTC) | temp F | wind direction | speed knots | gust knots | rain 1hr in | rain 24hr in | rain mn in | humidity % | barometer mb |
| 20260504232015 | 52 | 171 | 4.3 | 5.2 | 0.00 | 0.02 | 0.02 | 82 | 1007.2 |
| 20260504231044 | 58 | 126 | 3.5 | 4.3 | 0.00 | 0.02 | 0.02 | 67 | 1007.2 |
| 20260504230027 | 62 | 226 | 0.9 | 3.5 | 0.00 | 0.02 | 0.02 | 59 | 1007.0 |
| 20260504225030 | 62 | 0.0 | 0.0 | 0.00 | 0.02 | 0.02 | 57 | 1006.9 | |
| 20260504224015 | 62 | 324 | 1.7 | 3.5 | 0.00 | 0.02 | 0.02 | 56 | 1006.9 |
| 20260504223018 | 63 | 47 | 1.7 | 3.5 | 0.00 | 0.02 | 0.02 | 55 | 1006.8 |
| 20260504222042 | 63 | 351 | 1.7 | 3.5 | 0.00 | 0.02 | 0.02 | 54 | 1006.7 |
| 20260504221025 | 64 | 62 | 0.9 | 2.6 | 0.00 | 0.02 | 0.02 | 54 | 1006.8 |
| 20260504220027 | 63 | 6 | 1.7 | 4.3 | 0.00 | 0.02 | 0.02 | 55 | 1006.8 |
| 20260504215031 | 64 | 341 | 2.6 | 4.3 | 0.00 | 0.02 | 0.02 | 54 | 1006.7 |
| 20260504214017 | 65 | 344 | 3.5 | 6.1 | 0.01 | 0.02 | 0.02 | 52 | 1006.6 |
| 20260504213018 | 66 | 227 | 2.6 | 7.0 | 0.01 | 0.02 | 0.02 | 54 | 1006.5 |
| 20260504212042 | 66 | 297 | 2.6 | 5.2 | 0.01 | 0.02 | 0.02 | 52 | 1006.6 |
| 20260504211025 | 67 | 230 | 3.5 | 7.8 | 0.01 | 0.02 | 0.02 | 50 | 1006.6 |
| 20260504210028 | 67 | 326 | 3.5 | 6.1 | 0.01 | 0.02 | 0.02 | 51 | 1006.5 |
| 20260504205031 | 66 | 309 | 4.3 | 6.1 | 0.01 | 0.02 | 0.02 | 52 | 1006.5 |
| 20260504204036 | 67 | 17 | 4.3 | 7.8 | 0.00 | 0.01 | 0.01 | 51 | 1006.3 |
| 20260504203019 | 68 | 7 | 5.2 | 7.0 | 0.00 | 0.01 | 0.01 | 50 | 1006.2 |
| 20260504202042 | 69 | 318 | 4.3 | 7.0 | 0.00 | 0.01 | 0.01 | 50 | 1006.4 |
| 20260504201019 | 68 | 300 | 3.5 | 5.2 | 0.00 | 0.02 | 0.01 | 53 | 1006.3 |
| 20260504200016 | 68 | 337 | 4.3 | 7.8 | 0.00 | 0.02 | 0.01 | 55 | 1006.4 |
| 20260504195030 | 65 | 311 | 3.5 | 7.0 | 0.00 | 0.02 | 0.01 | 61 | 1006.5 |
| 20260504194016 | 63 | 193 | 3.5 | 7.0 | 0.00 | 0.02 | 0.01 | 65 | 1006.5 |
| 20260504193019 | 62 | 347 | 2.6 | 6.1 | 0.00 | 0.02 | 0.01 | 67 | 1006.5 |
| 20260504192021 | 59 | 308 | 3.5 | 6.1 | 0.00 | 0.02 | 0.01 | 75 | 1006.7 |
| 20260504191024 | 58 | 209 | 2.6 | 6.1 | 0.00 | 0.02 | 0.01 | 78 | 1006.8 |
| 20260504190027 | 57 | 259 | 1.7 | 3.5 | 0.01 | 0.03 | 0.01 | 82 | 1006.9 |
| 20260504185031 | 56 | 192 | 2.6 | 5.2 | 0.01 | 0.03 | 0.01 | 88 | 1007.0 |
| 20260504184016 | 54 | 226 | 1.7 | 2.6 | 0.01 | 0.04 | 0.01 | 90 | 1007.2 |
| 20260504183039 | 54 | 187 | 0.9 | 3.5 | 0.01 | 0.04 | 0.01 | 91 | 1007.4 |
| 20260504182022 | 54 | 281 | 0.9 | 1.7 | 0.01 | 0.04 | 0.01 | 91 | 1007.5 |
| 20260504181025 | 54 | 308 | 1.7 | 3.5 | 0.01 | 0.05 | 0.01 | 87 | 1007.6 |
| 20260504180028 | 54 | 298 | 1.7 | 2.6 | 0.00 | 0.05 | 0.00 | 84 | 1007.4 |
| 20260504175031 | 53 | 97 | 2.6 | 4.3 | 0.00 | 0.05 | 0.00 | 82 | 1007.2 |
| 20260504174016 | 54 | 103 | 2.6 | 3.5 | 0.00 | 0.06 | 0.00 | 78 | 1007.0 |
| 20260504173019 | 54 | 158 | 3.5 | 6.1 | 0.00 | 0.07 | 0.00 | 75 | 1007.0 |
| 20260504172022 | 54 | 202 | 3.5 | 4.3 | 0.00 | 0.07 | 0.00 | 75 | 1006.8 |
| 20260504171025 | 55 | 195 | 3.5 | 5.2 | 0.00 | 0.07 | 0.00 | 71 | 1006.8 |
| 20260504151026 | 54 | 167 | 6.1 | 7.8 | 0.00 | 0.21 | 0.00 | 63 | 1007.7 |
| 20260504141047 | 61 | 298 | 3.5 | 6.1 | 0.00 | 0.26 | 0.00 | 43 | 1008.3 |
| 20260504081026 | 35 | 353 | 1.7 | 3.5 | 0.00 | 0.55 | 0.00 | 93 | 1008.3 |
| 20260504050110 | 39 | 294 | 1.7 | 3.5 | 0.00 | 0.58 | 0.00 | 77 | 1007.3 |
| 20260504045015 | 39 | 295 | 1.7 | 4.3 | 0.00 | 0.58 | 0.00 | 78 | 1007.3 |
| 20260504044018 | 39 | 306 | 1.7 | 3.5 | 0.00 | 0.58 | 0.00 | 76 | 1007.3 |
| 20260504043021 | 39 | 351 | 3.5 | 4.3 | 0.00 | 0.58 | 0.00 | 76 | 1007.2 |
| 20260504042024 | 40 | 298 | 2.6 | 3.5 | 0.00 | 0.58 | 0.00 | 77 | 1007.2 |
| 20260504041027 | 39 | 313 | 2.6 | 3.5 | 0.00 | 0.58 | 0.00 | 77 | 1007.0 |
| 20260504040030 | 39 | 325 | 3.5 | 4.3 | 0.00 | 0.58 | 0.00 | 77 | 1006.9 |
| 20260504035016 | 40 | 277 | 1.7 | 2.6 | 0.00 | 0.58 | 0.58 | 78 | 1006.7 |
| 20260504034019 | 40 | 293 | 1.7 | 4.3 | 0.00 | 0.58 | 0.58 | 76 | 1006.7 |
| 20260504033022 | 40 | 5 | 3.5 | 6.1 | 0.00 | 0.58 | 0.58 | 74 | 1006.7 |
| 20260504032059 | 41 | 350 | 3.5 | 5.2 | 0.00 | 0.58 | 0.58 | 73 | 1006.6 |
| 20260504031016 | 42 | 331 | 3.5 | 7.0 | 0.00 | 0.58 | 0.58 | 70 | 1006.5 |
| 20260504030030 | 42 | 304 | 3.5 | 6.1 | 0.00 | 0.58 | 0.58 | 69 | 1006.5 |
| 20260504025016 | 41 | 344 | 3.5 | 5.2 | 0.00 | 0.58 | 0.58 | 69 | 1006.3 |
| 20260504024019 | 42 | 321 | 3.5 | 4.3 | 0.00 | 0.58 | 0.58 | 68 | 1006.3 |
| 20260504023042 | 42 | 312 | 3.5 | 4.3 | 0.00 | 0.58 | 0.58 | 69 | 1006.3 |
| 20260504022025 | 42 | 316 | 2.6 | 6.1 | 0.00 | 0.58 | 0.58 | 69 | 1006.1 |
| 20260504021028 | 43 | 294 | 3.5 | 6.1 | 0.00 | 0.58 | 0.58 | 65 | 1006.1 |
| 20260504020031 | 43 | 334 | 2.6 | 6.1 | 0.00 | 0.58 | 0.58 | 66 | 1006.1 |
| 20260504015016 | 43 | 322 | 4.3 | 5.2 | 0.00 | 0.58 | 0.58 | 64 | 1006.0 |
| 20260504014019 | 43 | 325 | 4.3 | 7.0 | 0.00 | 0.58 | 0.58 | 65 | 1005.9 |
| 20260504013022 | 44 | 336 | 3.5 | 7.0 | 0.00 | 0.58 | 0.58 | 64 | 1005.8 |
| 20260504012026 | 44 | 326 | 3.5 | 5.2 | 0.00 | 0.58 | 0.58 | 63 | 1005.7 |
| 20260504011050 | 44 | 300 | 3.5 | 7.0 | 0.00 | 0.58 | 0.58 | 64 | 1005.6 |
| 20260504010032 | 45 | 312 | 4.3 | 7.0 | 0.00 | 0.58 | 0.58 | 63 | 1005.3 |
| 20260504005016 | 45 | 341 | 5.2 | 7.0 | 0.00 | 0.58 | 0.58 | 63 | 1005.1 |
| 20260504004020 | 45 | 335 | 3.5 | 6.1 | 0.00 | 0.58 | 0.58 | 65 | 1005.0 |
| 20260504003023 | 45 | 2 | 3.5 | 6.1 | 0.00 | 0.58 | 0.58 | 67 | 1004.8 |
| 20260504002046 | 46 | 292 | 3.5 | 5.2 | 0.00 | 0.58 | 0.58 | 68 | 1004.6 |
| 20260504001024 | 46 | 327 | 6.1 | 8.7 | 0.00 | 0.58 | 0.58 | 69 | 1004.4 |
| 20260504000015 | 46 | 354 | 3.5 | 6.1 | 0.00 | 0.58 | 0.58 | 80 | 1004.2 |
| 20260503235038 | 45 | 332 | 3.5 | 6.1 | 0.00 | 0.58 | 0.58 | 87 | 1004.1 |
| 20260503234035 | 45 | 0 | 0.9 | 2.6 | 0.00 | 0.58 | 0.58 | 98 | 1004.0 |
| 20260503233025 | 45 | 291 | 1.7 | 3.5 | 0.00 | 0.58 | 0.58 | 97 | 1003.9 |